Weather Roundup
Issued by NWS Springfield, MO

Home | Current Version | Previous Version | Text Only | Print | Product List | Glossary On
Versions: 1 2 3 4 5 6 7 8 9 10 11 12 13 14 15 16 17 18 19 20 21 22 23 24 25 26 27 28 29 30 31 32 33 34 35 36 37 38 39 40 41 42 43 44 45 46 47 48 49 50
000
NZUS99 KSGF 101907
HRRSGF

HOURLY WEATHER
NATIONAL WEATHER SERVICE SPRINGFIELD MO
100 PM CST WED FEB 10 2016

......SGF CWA......

CITY           SKY/WX    TMP DP  RH WIND       PRES   REMARKS
SPRINGFIELD    SUNNY     41  13  31 SW17G24   30.03F
JOPLIN         SUNNY     45  18  34 SW21G28   30.05F
WEST PLAINS    SUNNY     35  11  36 S9        30.10F WCI  28
ROLLA          CLOUDY    22  19  89 S7        30.07F WCI  13
OSAGE BEACH    CLOUDY    34  12  40 SE7       30.07F WCI  28
BRANSON        MOSUNNY   41  14  33 SW6       30.09F

......SURROUNDING SGF CWA......

CITY           SKY/WX    TMP DP  RH WIND       PRES   REMARKS
CHANUTE        SUNNY     47  19  33 SW14      30.02F
PARSONS        SUNNY     48  19  31 SW16G23   30.04F
COFFEYVILLE    SUNNY     49  20  31 SW16      30.05F
EMPORIA        SUNNY     51  23  33 SW13      29.95F
GROVE OK       SUNNY     48  21  34 SW14G21   30.09F
ROGERS AR      SUNNY     44  18  35 SW20      30.08F
SILOAM SPRINGS SUNNY     46  18  31 SW22      30.10F
HARRISON AR    SUNNY     43  15  32 E3        30.08F
NEAR YELLVILLE SUNNY     39  12  33 S8        30.10F WCI  34

......KANSAS AND MISSOURI......

CITY           SKY/WX    TMP DP  RH WIND       PRES   REMARKS
KANSAS CTY INT MOSUNNY   41  18  39 SW20      29.94F
DOWNTOWN KC    SUNNY     43  17  35 SW16G23   29.96F
COLUMBIA       CLOUDY    23  19  85 S8        30.08F WCI  14
SEDALIA        MOSUNNY   36  13  38 S16G23    30.04F WCI  26
ST JOSEPH      SUNNY     40  17  39 S10       29.96F WCI  33
ST LOUIS       NOT AVBL
SPIRIT OF STL  LGT SNOW  21  15  78 SW6       30.14F WCI  13
KIRKSVILLE     LGT SNOW  21  15  78 SE6       30.05F WCI  13
WICHITA        SUNNY     55  29  36 S13       29.98F
TOPEKA         SUNNY     48  21  34 SW9       29.94F
OLATHE         SUNNY     41  17  38 SW14      29.97F

......TENNESSEE......

CITY           SKY/WX    TMP DP  RH WIND       PRES   REMARKS
MEMPHIS        PTSUNNY   37   9  31 VRB3      30.21F
NASHVILLE      PTSUNNY   28   9  44 W10G18    30.17F WCI  19

......ARKANSAS.......

CITY           SKY/WX    TMP DP  RH WIND       PRES   REMARKS
FAYETTEVILLE   SUNNY     47  20  34 SW15      30.10F
FT SMITH       SUNNY     49  13  23 SW10      30.17F
LITTLE ROCK    SUNNY     46  14  27 SW10      30.22F

......OKLAHOMA.......

CITY           SKY/WX    TMP DP  RH WIND       PRES   REMARKS
TULSA          MOSUNNY   53  24  32 SW12G20   30.07F
PONCA CITY     SUNNY     59  31  34 S8G17     30.01F
MCALESTER      MOSUNNY   55  25  31 SW18      30.16F
OKLAHOMA CITY  SUNNY     65  30  27 SW21G28   30.08F

......IOWA............

CITY           SKY/WX    TMP DP  RH WIND       PRES   REMARKS
DES MOINES     FLURRIES  19  12  74 E8        30.04F WCI   9
QUAD CITIES    CLOUDY    19   4  51 NW10      30.08F WCI   7

......ILLINOIS........

CITY           SKY/WX    TMP DP  RH WIND       PRES   REMARKS
QUINCY         LGT SNOW  19  11  70 CALM      30.09F
CHICAGO        PTSUNNY   15   3  59 W13       30.01F WCI   1



USA.gov is the U.S. government's official web portal to all federal, state and local government web resources and services.